Flag for Canada Weather past 2 weeks in Rouyn-Noranda, Quebec, Canada

Now
81 °F

Passing clouds.


Feels Like: 79 °F
Forecast: N/A
Wind: 6 mph from Southeast

Location: Rouyn Airport

Current Time: Sep 4, 2015 at 7:17:40 PM

Latest Report: Sep 4, 2015 at 6:00 PM


Visibility: 15 mi

Pressure: 30.22 "Hg

Humidity: 28%

Dew point: 45 °F

Location of Rouyn-NorandaLocation

Historic Weather in Rouyn-Noranda — Graph

°F

Rouyn-Noranda temperature yesterday

Maximum temperature yesterday: 75 °F (at 3:00 PM)
Minimum temperature yesterday: 52 °F (at 7:00 AM)
Average temperature yesterday: 63 °F

Past Weeks' High & Low Weather Summary

 TemperatureHumidityPressure
High81 °F (Sep 2, 2:00 PM)100% (Aug 22, 5:00 AM)30.24 "Hg (Aug 22, 5:00 AM)
Low41 °F (Sep 4, 4:00 AM)26% (Sep 4, 5:00 PM)29.66 "Hg (Aug 24, 1:00 PM)
Average63 °F82%29.96 "Hg
* Reported Aug 20 6:00 PM — Sep 4 6:00 PM, Rouyn-Noranda, Weather by CustomWeather, © 2015

Note: Actual official high and low records may vary slightly from our data, if they occured in-between our weather recording intervals... More about our weather records

Advertising

Rouyn-Noranda weather history for previous 24 hours

 ConditionsComfort  
Time TempWeatherWind HumidityBarometerVisibility
6:00 PM
Fri, Sep 4
81 °FPassing clouds.6 mph28%30.22 "Hg15 mi
5:00 PM81 °FPassing clouds.7 mph26%30.22 "Hg15 mi
4:00 PM79 °FPassing clouds.No wind32%30.22 "Hg15 mi
3:00 PM81 °FPassing clouds.8 mph32%30.22 "Hg15 mi
2:00 PM79 °FPassing clouds.9 mph28%30.21 "Hg15 mi
1:00 PM77 °FPassing clouds.7 mph36%30.22 "Hg15 mi
12:00 PM75 °FPassing clouds.5 mph36%30.22 "Hg15 mi
11:00 AM73 °FPassing clouds.7 mph41%30.22 "Hg15 mi
10:00 AM66 °FPassing clouds.3 mph60%30.23 "Hg15 mi
9:00 AM59 °FScattered clouds.No wind72%30.23 "Hg15 mi
8:00 AM50 °FScattered clouds.No wind94%30.24 "Hg15 mi
7:00 AM43 °FPassing clouds.2 mph100%30.21 "Hg15 mi
6:00 AM43 °FPassing clouds.2 mph93%30.19 "Hg15 mi
5:00 AM43 °FClear.No wind93%30.17 "Hg15 mi
4:00 AM41 °FClear.No wind100%30.15 "Hg15 mi
3:00 AM48 °FClear.7 mph94%30.14 "Hg15 mi
2:00 AM48 °FClear.No wind87%30.13 "Hg15 mi
1:00 AM54 °FClear.2 mph82%30.14 "Hg15 mi
12:00 AM50 °FClear.3 mph88%30.13 "Hg15 mi
11:00 PM
Thu, Sep 3
52 °FClear.3 mph88%30.12 "Hg15 mi
10:00 PM57 °FClear.5 mph77%30.11 "Hg15 mi
9:00 PM59 °FPassing clouds.6 mph72%30.10 "Hg15 mi
8:00 PM64 °FPassing clouds.2 mph73%30.08 "Hg15 mi
7:00 PM72 °FPassing clouds.6 mph50%30.06 "Hg15 mi
Weather by CustomWeather, © 2015

See weather overviewHow to use our weather pages